Location: Trois-Rivi�res
(46.3500°N, 72.5500°W)
Time: 13:18:51
(UTC-04:00)

Tiangong 2 - Pass Details

Date: 14 October 2017
Orbit: 388 x 391 km, 42.8° (Epoch: 23 October)

Event Time Altitude Azimuth Distance (km) Brightness Sun altitude
Exits shadow 04:58:29 30° 130° (SE) 730 2.8 -22.7°
Drops below altitude 10° 05:00:32 10° 101° (ESE) 1,422 4.9 -22.4°
Sets 05:02:41 0° 94° (E) 2,278 6.3 -22.0°
